Probability
41 39 37 36 34 32 31 27 27 30 31 30 29 27 24 23 25 26 25 25 25 23 21 22 26 26 26 24 22 21 21 22 22 22 22 21 20 23 27 29 25 20 17
42 41 39 37 35 33 32 30 31 33 32 31 31 30 27 26 27 28 29 31 30 26 24 24 25 26 25 24 22 21 20 21 22 21 21 22 22 25 28 27 24 21 20
42 42 41 40 38 38 36 35 35 35 34 35 36 36 35 33 33 32 33 35 33 29 25 23 23 24 24 22 21 20 19 18 19 20 20 21 23 25 27 25 22 21 20
44 43 44 44 42 42 40 38 38 37 37 38 39 40 40 39 39 38 36 34 32 28 26 23 21 21 22 20 18 19 19 17 17 18 18 18 22 24 24 22 21 20 18
50 48 48 47 44 44 44 43 43 41 39 39 40 39 38 36 35 35 34 32 30 30 29 25 22 20 19 16 14 15 16 16 15 15 15 15 19 21 21 20 19 18 18
54 53 51 48 46 46 48 49 48 46 42 40 39 38 34 28 23 22 25 28 31 31 30 26 22 18 15 12 11 10 10 11 11 11 11 13 15 18 18 16 15 16 16
51 51 50 49 49 50 51 52 52 50 46 43 41 40 36 25 15 11 15 22 27 30 30 28 23 17 14 12 12 10 8 7 7 7 9 10 14 17 17 14 13 13 12
50 50 50 51 52 54 55 56 56 54 51 47 45 45 39 27 13 8 11 19 25 28 30 29 25 20 15 13 13 12 11 9 7 6 7 8 11 14 14 13 13 11 10
52 52 53 53 53 54 57 59 58 56 53 50 49 47 41 28 14 7 11 22 29 31 32 29 26 22 16 12 12 13 12 11 9 7 5 5 5 6 7 10 12 12 11
51 52 54 52 51 51 54 57 57 55 52 51 49 47 42 32 17 8 11 25 35 37 34 28 23 18 12 10 12 15 14 12 11 8 5 4 4 4 5 7 11 14 14
49 50 51 50 48 48 52 55 55 53 52 51 48 46 42 34 20 8 9 22 33 36 30 23 16 10 6 6 10 13 13 11 10 8 6 6 8 9 9 10 13 15 16
50 50 50 49 47 47 50 52 51 51 49 47 44 40 38 33 20 8 5 11 21 25 21 14 8 3 1 2 4 6 7 7 8 7 6 6 8 11 12 13 14 16 16
52 51 50 48 46 46 48 48 46 45 44 42 38 33 32 29 20 10 3 3 7 12 11 6 2 0 0 0 0 1 2 4 6 5 4 4 6 9 12 14 15 16 16
51 50 47 46 44 44 44 42 40 39 38 38 36 32 28 25 19 12 6 3 3 4 4 3 1 1 1 1 1 2 2 3 4 3 3 3 6 9 12 14 16 16 16
46 45 43 42 40 38 36 33 31 28 29 31 32 29 24 19 15 11 8 6 5 4 3 3 3 3 3 3 4 4 4 3 3 3 2 3 6 9 12 14 15 16 16
41 40 38 37 36 33 31 28 23 19 18 19 19 18 15 11 8 6 6 5 5 4 4 4 3 4 5 5 5 4 4 3 3 4 3 4 5 8 10 11 13 14 14
36 35 33 32 32 31 30 27 23 18 14 11 9 7 6 4 2 2 2 3 3 3 4 5 4 4 5 6 5 5 4 3 4 5 6 5 6 7 8 8 9 9 9
32 30 29 28 28 29 28 26 24 21 17 13 7 3 1 1 0 0 1 2 3 3 4 5 5 5 7 7 6 6 5 4 3 4 5 6 7 7 7 7 7 6 6
27 26 26 26 25 25 24 23 22 21 20 16 10 3 0 0 1 1 1 3 3 3 4 5 5 6 7 6 6 6 6 4 3 2 3 4 4 4 5 6 6 4 4
24 23 24 24 24 24 23 21 20 20 20 18 14 7 2 2 3 3 3 3 3 3 4 5 5 6 6 5 4 5 4 3 2 2 2 2 1 1 2 3 2 2 2
22 22 22 23 24 24 23 21 20 19 19 19 16 9 4 4 6 5 4 3 3 3 4 5 5 5 4 3 3 2 1 1 1 1 1 1 0 0 1 1 0 0 1
20 21 22 23 23 23 22 20 19 18 19 18 16 10 5 6 8 7 5 4 3 4 5 5 4 3 2 1 1 1 0 0 0 0 0 0 0 0 0 0 0 0 0
19 19 21 22 22 21 19 17 16 16 16 16 14 10 7 8 10 9 6 4 4 3 3 3 2 1 0 0 0 0 0 0 0 0 0 0 0 0 0 0 0 0 0
17 18 19 19 18 17 16 15 14 13 13 13 13 10 8 9 10 8 6 4 4 3 1 1 1 0 0 0 0 0 0 0 0 0 0 0 0 0 0 0 0 0 0
16 17 17 16 16 15 14 14 13 12 12 13 12 10 9 9 9 7 6 4 3 2 1 0 0 0 0 0 0 0 0 0 0 0 0 0 0 0 0 0 0 0 0
15 17 17 16 16 15 14 14 14 13 13 13 13 11 8 8 7 7 6 4 2 1 0 0 0 0 0 0 0 0 0 0 0 0 0 0 0 0 0 0 0 0 0
Wind_Speed
7 6 5 5 4 4 3 2 2 2 2 2 2 2 2 2 2 2 3 2 2 2 2 2 2 2 1 2 2 1 1 1 2 2 1 1 1 1 1 2 3 4 4
7 6 5 5 5 4 4 3 3 3 2 2 2 3 3 3 3 3 3 2 2 2 2 2 2 1 1 2 2 2 1 2 1 3 2 2 2 2 2 2 3 3 3
6 6 5 5 5 4 4 3 3 3 3 3 3 3 2 2 2 2 2 1 2 2 2 2 2 2 2 1 1 1 2 2 1 2 3 2 1 1 2 3 3 2 3
6 6 5 5 4 4 4 3 3 3 3 3 3 3 2 2 2 2 2 2 2 2 2 2 2 2 2 2 2 2 2 2 2 2 2 2 1 2 1 2 3 2 3
5 5 4 4 3 4 4 3 3 3 4 3 3 3 3 3 3 2 3 3 2 2 2 2 2 1 1 0 1 1 2 1 2 2 2 2 2 2 2 2 3 2 3
4 4 4 4 4 4 3 3 3 3 3 3 2 2 3 3 1 2 2 2 2 2 2 2 2 1 1 1 0 1 1 1 2 2 2 2 2 2 2 3 3 3 3
4 4 4 4 4 3 3 3 3 3 3 3 3 3 2 1 1 3 4 3 3 2 2 2 3 2 2 1 1 1 2 3 3 2 3 3 3 2 2 3 3 4 4
4 4 3 4 4 3 3 3 3 3 3 3 3 3 2 2 1 2 3 4 3 2 2 2 2 1 2 0 1 1 2 3 4 3 3 3 3 3 3 4 4 4 4
3 3 3 3 3 3 3 3 2 3 3 4 3 3 3 2 3 3 3 3 3 3 3 2 2 1 1 1 1 2 2 3 3 3 3 3 4 4 3 3 3 3 4
1 1 2 2 2 3 3 3 3 3 3 3 3 3 3 2 3 4 4 3 3 2 2 2 1 2 3 2 2 2 2 3 3 4 3 4 4 4 4 2 3 3 3
1 1 2 2 2 3 3 3 3 3 3 3 3 3 3 3 4 5 5 3 3 2 2 2 1 4 4 3 2 2 3 2 2 3 3 2 2 2 1 2 2 2 2
1 2 3 3 4 3 3 3 4 4 4 4 3 3 2 3 3 4 5 3 2 1 1 1 2 4 3 3 2 2 2 2 2 2 2 2 2 1 1 2 3 3 3
2 2 3 3 3 3 4 4 4 3 3 3 2 2 1 1 1 2 3 2 1 0 1 1 3 3 2 1 3 3 2 1 2 2 3 2 2 2 2 2 2 2 3
2 2 2 3 3 3 2 2 2 2 3 3 2 2 2 1 1 1 0 0 0 0 1 2 2 2 2 2 2 2 2 2 2 2 2 2 2 2 2 2 2 2 2
2 2 3 4 3 2 1 0 1 0 2 3 2 2 2 2 2 2 2 1 1 1 1 1 1 1 2 2 2 2 2 2 2 2 2 3 3 3 2 2 2 2 2
2 2 3 2 2 2 2 2 5 2 2 1 1 1 1 1 2 2 1 1 2 3 2 2 2 2 2 2 2 2 2 2 2 2 2 2 3 3 3 2 2 2 2
3 3 2 2 2 2 2 2 1 2 4 3 2 2 3 3 3 2 2 2 2 3 2 2 2 1 1 1 1 2 2 1 1 2 2 2 2 2 2 2 3 2 2
3 2 2 2 2 2 2 3 3 3 2 0 2 3 4 4 4 3 3 2 1 1 2 2 1 1 1 2 2 2 2 1 1 2 2 2 2 2 2 3 3 3 3
2 1 1 2 2 1 2 2 2 2 1 1 2 2 2 3 3 2 3 1 2 2 2 2 2 2 1 1 1 1 1 1 1 1 2 2 2 2 2 3 3 3 3
1 2 1 2 1 1 1 1 1 1 1 1 2 2 1 1 1 1 2 2 2 2 2 1 1 1 0 0 1 1 1 1 1 1 1 2 2 2 3 3 3 3 3
2 1 1 2 1 1 1 1 1 1 1 1 2 2 2 1 1 1 2 2 2 1 1 1 1 1 0 1 1 1 1 1 1 1 1 1 2 2 3 3 3 3 2
1 0 0 1 1 1 1 1 1 1 1 1 1 2 3 2 1 1 2 1 1 1 1 1 1 1 1 1 1 1 1 1 1 2 2 2 2 2 2 2 2 2 3
1 1 1 1 1 1 1 1 1 1 1 0 1 1 2 1 1 1 1 1 0 0 1 1 1 1 1 1 2 2 2 2 2 2 2 2 3 2 2 2 3 3 3
1 1 0 0 0 1 1 1 0 1 0 0 0 1 1 1 1 0 0 1 1 1 1 1 1 2 3 3 2 3 3 3 3 2 3 3 3 2 2 2 3 3 3
1 1 1 1 1 0 1 1 0 0 0 0 0 0 0 0 0 0 1 1 1 1 1 1 1 2 3 4 4 4 4 4 3 3 3 2 2 2 3 3 3 3 3
2 1 1 1 1 0 0 0 1 1 0 0 1 1 0 0 1 1 1 1 1 1 1 2 3 4 4 4 5 5 4 3 3 3 3 3 3 3 4 3 4 4 4
Wind_Direction
171 173 171 175 183 189 194 183 190 187 176 175 192 191 194 206 211 216 220 206 205 214 235 224 227 236 280 295 293 287 291 277 268 285 288 281 271 266 212 223 216 205 196
169 167 173 174 181 189 193 194 190 191 197 198 204 204 210 215 220 222 231 209 211 217 221 221 224 230 252 283 300 317 310 296 274 279 282 270 265 247 240 254 259 244 219
165 170 174 181 185 189 193 194 192 194 204 207 206 213 225 224 218 220 233 215 213 216 202 211 223 209 232 257 266 286 286 298 274 266 276 275 283 299 279 276 274 266 262
165 175 175 184 189 190 194 194 196 202 213 219 212 213 218 230 215 206 214 225 225 222 204 215 234 221 233 260 259 268 283 294 293 289 281 280 274 280 282 282 284 271 268
161 174 178 183 187 191 194 197 195 197 212 217 223 223 224 231 226 205 203 211 218 230 217 211 215 184 133 17 307 312 304 297 298 293 283 296 308 320 302 286 290 286 272
162 176 175 180 190 197 195 190 191 193 207 204 214 227 240 257 246 202 223 222 205 209 226 237 209 174 145 150 139 335 312 290 303 303 305 303 299 302 302 302 305 305 288
168 176 177 177 190 195 201 192 197 200 203 202 212 218 223 268 256 226 222 238 226 209 210 231 265 255 180 193 254 259 279 280 265 265 287 295 298 299 300 296 293 292 282
180 184 181 185 190 189 196 196 196 197 201 206 216 220 216 234 236 247 234 236 226 208 210 217 238 247 267 320 267 273 272 276 268 260 263 275 290 300 289 283 275 278 277
190 185 177 185 193 194 198 193 190 199 206 208 215 220 216 220 200 206 225 241 228 214 214 218 221 202 147 98 252 261 278 293 290 276 259 265 283 297 304 304 296 293 291
191 177 168 187 198 197 195 193 198 210 214 213 213 212 211 208 194 204 217 239 235 226 206 187 195 185 172 171 215 242 263 286 305 307 282 272 266 268 269 257 281 292 296
234 207 197 206 218 208 197 200 204 214 215 216 218 215 211 205 192 203 213 237 249 231 213 192 166 158 172 185 209 233 243 270 284 284 281 270 262 257 242 249 259 259 271
238 216 214 216 228 221 209 214 213 213 219 215 214 220 218 199 193 193 197 225 276 268 249 189 139 147 170 192 212 239 252 284 281 287 287 285 288 292 282 272 261 250 240
243 230 222 223 230 225 217 217 216 215 225 220 214 220 227 170 140 165 185 189 231 289 332 127 141 159 160 198 215 235 259 266 270 280 288 291 293 297 291 278 271 267 262
243 236 228 218 224 219 220 226 222 226 233 232 229 222 205 195 135 122 144 134 105 130 91 110 138 183 230 237 241 247 245 254 269 281 292 293 292 286 280 278 276 270 273
245 235 240 230 218 202 182 58 231 250 252 242 240 224 216 218 209 192 196 210 224 191 146 196 219 210 220 228 229 236 240 233 249 263 278 294 299 297 288 288 287 293 293
243 243 247 239 207 199 159 85 38 32 35 35 201 205 181 156 154 152 144 167 197 182 178 218 219 216 225 228 234 241 244 246 251 269 271 280 287 293 301 307 304 299 298
248 240 242 241 216 200 182 177 168 51 41 44 67 106 136 143 138 126 109 116 178 177 204 231 227 226 244 263 270 272 273 271 272 276 276 291 299 301 305 306 305 304 295
255 233 241 239 222 199 198 211 199 185 177 130 58 99 135 150 154 150 134 110 123 212 232 227 228 228 238 250 261 281 293 287 276 287 305 316 317 318 321 316 314 310 301
265 243 242 246 235 222 207 208 198 185 182 154 120 82 107 135 145 168 169 188 209 239 252 245 240 245 256 268 291 305 310 326 339 330 334 328 320 322 323 320 315 309 296
242 266 267 270 263 213 207 217 204 199 177 130 125 122 145 151 136 156 202 249 243 236 259 274 277 280 294 304 297 291 298 328 338 333 328 319 318 318 311 306 307 307 308
240 214 225 258 252 233 219 226 219 201 155 140 141 145 172 184 178 184 215 242 264 276 282 294 304 311 359 354 313 294 308 329 339 332 328 321 321 315 305 303 304 306 316
306 307 257 279 300 7 326 323 7 42 94 124 131 139 181 217 218 196 211 221 246 292 306 333 350 6 12 4 351 346 348 342 344 333 318 311 304 300 304 308 311 321 325
304 316 317 325 342 40 14 18 26 38 54 54 90 140 180 235 232 205 208 211 199 355 30 42 34 23 28 32 28 25 17 9 359 348 333 321 311 305 306 310 315 319 322
293 302 347 9 17 57 64 52 37 32 50 118 145 150 187 228 260 240 202 107 104 89 67 67 47 15 28 39 38 42 33 17 359 351 336 321 319 323 324 320 311 308 308
350 7 44 63 73 101 133 139 157 55 6 3 61 69 53 287 298 337 72 89 94 92 82 74 63 47 35 31 42 45 44 38 16 348 332 324 316 317 318 311 308 308 310
13 21 16 12 42 49 101 101 57 24 355 15 56 73 66 35 45 80 86 89 99 86 74 63 54 55 56 55 57 57 55 36 9 346 327 324 324 323 320 311 308 305 303